User: anonymous   Login
Location: Waco, TX
(31.5481°N, 97.1672°W)
Time: 14:07:19
(UTC-06:00)
Language:

BEESAT 3 - Orbit

View from above orbital plane
View from above orbital plane
View from above satellite
View from above satellite

Ground track
Ground track

The orbit data is extracted from the following two-line orbital elements,

1 39134U 13015E   17345.55094192 +.00001717 +00000-0 +91455-4 0  9999
2 39134 064.8645 013.6235 0030235 236.9828 122.8393 15.18602563256026
Epoch (UTC): 11 December 2017 13:13:21
Eccentricity: 0.0030235
inclination: 64.8645°
perigee height: 489 km
apogee height: 531 km
right ascension of ascending node: 13.6235°
argument of perigee: 236.9828°
revolutions per day: 15.18602563
mean anomaly at epoch: 122.8393°
orbit number at epoch: 25602

The dashed part of the orbit path shows where the satellite is in the earth's shadow,  

DLR